TimeAKST,TemperatureF,Dew PointF,Humidity,Sea Level PressureIn,VisibilityMPH,Wind Direction,Wind SpeedMPH,Gust SpeedMPH,PrecipitationIn,Events,Conditions,WindDirDegrees,DateUTC
12:24 AM,37.4,35.6,93,30.00,10.0,Calm,Calm,-,N/A,,Mostly Cloudy,0,2013-01-18 09:24:00
12:50 AM,35.6,35.6,100,30.01,10.0,Calm,Calm,-,N/A,,Scattered Clouds,0,2013-01-18 09:50:00
12:53 AM,36.0,35.1,97,30.01,10.0,South,3.5,-,N/A,,Partly Cloudy,190,2013-01-18 09:53:00
1:53 AM,37.0,35.1,93,30.04,10.0,Calm,Calm,-,N/A,,Overcast,0,2013-01-18 10:53:00
3:18 AM,35.6,35.6,100,30.05,10.0,SSW,3.5,-,N/A,,Overcast,200,2013-01-18 12:18:00
3:53 AM,37.0,35.1,93,30.06,10.0,South,3.5,-,N/A,,Overcast,180,2013-01-18 12:53:00
4:53 AM,37.0,36.0,96,30.07,10.0,Calm,Calm,-,0.00,,Overcast,0,2013-01-18 13:53:00
5:21 AM,37.4,35.6,93,30.08,4.0,WSW,8.1,-,0.02,Rain,Light Rain,250,2013-01-18 14:21:00
5:28 AM,35.6,33.8,93,30.08,6.0,Calm,Calm,-,0.03,Rain,Light Rain,0,2013-01-18 14:28:00
5:53 AM,36.0,34.0,93,30.09,10.0,Calm,Calm,-,0.03,Rain,Light Rain,0,2013-01-18 14:53:00
6:53 AM,36.0,34.0,93,30.12,10.0,SSE,4.6,-,0.00,,Overcast,160,2013-01-18 15:53:00
7:53 AM,36.0,34.0,93,30.13,10.0,Calm,Calm,-,N/A,,Overcast,0,2013-01-18 16:53:00
8:53 AM,37.0,33.1,86,30.17,10.0,SSE,4.6,-,N/A,,Overcast,160,2013-01-18 17:53:00
9:53 AM,37.0,32.0,82,30.19,10.0,SSE,3.5,-,N/A,,Overcast,150,2013-01-18 18:53:00
10:53 AM,39.0,34.0,82,30.21,10.0,Calm,Calm,-,N/A,,Overcast,0,2013-01-18 19:53:00
11:53 AM,39.0,35.1,86,30.22,10.0,Calm,Calm,-,N/A,,Mostly Cloudy,0,2013-01-18 20:53:00
12:18 PM,39.2,35.6,87,30.21,10.0,Calm,Calm,-,N/A,,Overcast,0,2013-01-18 21:18:00
12:36 PM,37.4,35.6,93,30.22,10.0,WSW,3.5,-,N/A,,Mostly Cloudy,250,2013-01-18 21:36:00
12:53 PM,39.0,35.1,86,30.21,10.0,Calm,Calm,-,N/A,,Mostly Cloudy,0,2013-01-18 21:53:00
1:31 PM,39.2,35.6,87,30.22,10.0,Calm,Calm,-,N/A,,Overcast,0,2013-01-18 22:31:00
1:42 PM,37.4,35.6,93,30.22,10.0,Calm,Calm,-,N/A,,Overcast,0,2013-01-18 22:42:00
1:51 PM,39.2,35.6,87,30.23,10.0,Calm,Calm,-,0.00,Rain,Light Rain,0,2013-01-18 22:51:00
1:53 PM,39.0,36.0,89,30.23,10.0,WSW,3.5,-,0.00,Rain,Light Rain,240,2013-01-18 22:53:00
2:32 PM,37.4,33.8,87,30.22,10.0,Calm,Calm,-,0.00,Rain,Light Rain,0,2013-01-18 23:32:00
2:53 PM,37.9,35.1,89,30.23,10.0,Calm,Calm,-,0.01,Rain,Light Rain,0,2013-01-18 23:53:00
3:53 PM,37.0,35.1,93,30.23,10.0,Calm,Calm,-,N/A,,Overcast,0,2013-01-19 00:53:00
4:53 PM,37.0,35.1,93,30.23,10.0,Calm,Calm,-,N/A,,Overcast,0,2013-01-19 01:53:00
5:53 PM,36.0,34.0,93,30.24,10.0,Calm,Calm,-,N/A,,Overcast,0,2013-01-19 02:53:00
7:53 PM,35.1,34.0,96,30.25,10.0,Calm,Calm,-,N/A,,Overcast,0,2013-01-19 04:53:00
8:53 PM,35.1,33.1,92,30.24,10.0,Calm,Calm,-,N/A,,Clear,0,2013-01-19 05:53:00
9:53 PM,34.0,33.1,96,30.25,10.0,ENE,3.5,-,N/A,,Clear,60,2013-01-19 06:53:00
10:53 PM,34.0,32.0,92,30.25,10.0,ENE,3.5,-,N/A,,Scattered Clouds,70,2013-01-19 07:53:00
11:53 PM,34.0,32.0,92,30.24,10.0,NE,3.5,-,N/A,,Clear,40,2013-01-19 08:53:00